This is the latest recevied weather packets stored in our database for station/object YO6FNF-10. If no packets are shown the sender has not sent any weather packets the latest 10 day(s).
| Time | Temp. | Humidity | Pressure | Rain* | Wind** | Luminosity | Snow |
|---|---|---|---|---|---|---|---|
| 1777544083 | 8.33° C | 44% | 1025.5 hPa | - | - | - | - |
| 1777543183 | 8.33° C | 44% | 1025.5 hPa | - | - | - | - |
| 1777542283 | 8.33° C | 44% | 1025.4 hPa | - | - | - | - |
| 1777541382 | 8.33° C | 46% | 1025.4 hPa | - | - | - | - |
| 1777540482 | 8.33° C | 45% | 1025.2 hPa | - | - | - | - |
| 1777539582 | 7.78° C | 46% | 1025.3 hPa | - | - | - | - |
| 1777538682 | 7.78° C | 47% | 1025.2 hPa | - | - | - | - |
| 1777537782 | 8.33° C | 50% | 1025.2 hPa | - | - | - | - |
| 1777536881 | 7.78° C | 51% | 1025.2 hPa | - | - | - | - |
| 1777535081 | 7.22° C | 52% | 1025.1 hPa | - | - | - | - |
| 1777534181 | 7.22° C | 52% | 1025.1 hPa | - | - | - | - |
| 1777533281 | 6.67° C | 53% | 1025 hPa | - | - | - | - |
| 1777532381 | 6.67° C | 53% | 1024.9 hPa | - | - | - | - |
| 1777531480 | 6.67° C | 57% | 1024.9 hPa | - | - | - | - |
| 1777530580 | 6.67° C | 59% | 1024.9 hPa | - | - | - | - |
| 1777529680 | 6.11° C | 61% | 1024.8 hPa | - | - | - | - |
| 1777528780 | 6.11° C | 64% | 1024.8 hPa | - | - | - | - |
| 1777527880 | 5.56° C | 65% | 1024.7 hPa | - | - | - | - |
| 1777526979 | 5.56° C | 66% | 1024.7 hPa | - | - | - | - |
| 1777526079 | 5° C | 67% | 1024.8 hPa | - | - | - | - |
| 1777525179 | 5° C | 68% | 1024.9 hPa | - | - | - | - |
| 1777524279 | 5° C | 69% | 1024.9 hPa | - | - | - | - |
| 1777523379 | 4.44° C | 69% | 1024.9 hPa | - | - | - | - |
| 1777522479 | 4.44° C | 71% | 1024.8 hPa | - | - | - | - |
| 1777521578 | 4.44° C | 71% | 1024.7 hPa | - | - | - | - |
* Rain since midnight (hover to see other rain measurements)
** Current wind speed in m/s (hover to see current wind gust speed)